Retour au catalogue

COSMOS 1574

ActifMilitairePO
NORAD 15055·PAYLOAD·🇷🇺 Russia

Lancé Jun 21, 1984 depuis Plesetsk Cosmodrome

Loading…

Prochains Passages (prochaines 24 heures)

TLE

FraisSource: Space-Track

Époque: Sep 14, 2026, 05:49 UTC

1 15055U 84062A   26257.24271924  .00000058  00000-0  45009-4 0  9994
2 15055  82.9610  12.4010 0027794 160.3980 217.8067 13.74564421117791

Suivez COSMOS 1574 en temps réel avec AllMySat

Download on the App Store